Theta_e
300 300 301 302 303 304 304 304 303 303 303 303 302 302 303 303 304 304 303 303 302 300 300 301 302 303 307 314 312 310 309 311 310 312 313 312 312 313 314 314 314 315 315 316 316 316 316
300 300 301 303 303 304 304 303 303 302 302 303 303 302 302 303 303 303 303 303 302 300 301 301 303 302 307 313 308 308 309 311 315 316 310 311 311 311 313 314 314 316 315 316 316 316 316
299 300 301 303 303 303 303 303 301 300 300 302 302 302 302 302 302 303 302 301 300 300 303 308 307 306 312 311 307 306 307 308 312 312 309 309 310 310 312 313 313 314 314 314 314 314 314
299 299 301 302 303 303 303 303 302 301 301 302 302 301 302 301 302 302 301 300 301 303 306 308 308 309 315 310 311 307 305 303 307 308 307 307 307 308 309 311 312 312 312 313 313 313 313
298 299 302 302 303 303 303 303 303 303 303 302 302 301 302 302 302 301 300 302 304 306 308 310 314 315 310 306 305 303 302 303 303 302 303 304 305 306 308 309 310 311 311 312 312 313 312
298 300 301 302 303 303 302 303 303 303 303 301 300 300 301 301 302 301 301 303 309 310 310 310 305 311 308 306 303 302 302 303 303 303 303 304 306 306 306 308 311 311 311 311 312 312 311
298 301 302 302 302 302 302 303 302 302 302 300 300 300 301 301 301 302 302 304 305 312 306 307 308 309 309 310 308 303 301 302 302 303 304 305 305 307 307 308 309 310 311 311 311 311 309
298 300 301 302 302 302 302 303 302 302 301 300 300 301 302 301 301 303 306 306 305 304 305 305 308 308 308 306 308 305 303 302 304 304 305 306 306 308 310 310 310 310 311 310 311 311 309
297 299 301 302 302 302 302 303 302 302 301 301 301 302 303 302 303 305 308 304 306 306 305 308 309 308 304 302 308 304 302 303 306 306 307 308 309 306 308 309 310 310 310 310 309 308 308
297 299 302 302 302 302 302 302 301 301 301 301 301 302 302 301 304 304 307 302 305 306 308 312 310 305 302 301 303 302 303 303 306 304 307 308 308 308 305 306 306 305 303 305 307 306 309
296 298 302 301 301 302 302 302 301 301 301 301 301 302 302 301 302 304 298 300 306 306 316 310 306 304 304 303 303 301 300 300 302 305 304 306 305 303 304 304 303 303 301 302 303 304 304
296 300 301 301 301 302 302 301 301 301 302 301 302 302 302 301 303 301 297 300 307 313 317 311 308 309 309 306 305 300 300 299 300 302 303 303 299 300 300 298 298 298 300 301 301 301 304
298 301 301 301 301 301 302 301 301 301 301 301 302 302 302 300 297 297 299 307 312 313 308 310 309 308 307 306 307 307 305 302 304 307 307 306 300 296 297 300 297 298 302 309 308 305 307
300 301 301 301 301 302 301 301 300 301 300 301 302 302 302 299 297 298 301 309 312 310 309 307 306 305 305 307 308 308 307 306 303 303 305 306 306 298 297 298 301 299 302 309 311 310 309
301 301 301 301 301 302 301 301 301 301 300 301 301 301 301 299 298 299 305 307 309 306 305 304 304 304 306 308 306 306 305 306 305 304 305 306 305 298 297 297 300 302 302 303 305 305 304
301 301 301 302 302 301 300 300 300 301 300 301 301 300 301 300 299 300 306 305 302 301 300 302 302 303 304 303 303 305 304 304 305 304 303 306 306 301 295 297 298 301 301 303 303 301 302
301 301 301 301 301 301 300 300 300 300 300 300 300 300 301 300 298 303 305 301 300 299 299 301 300 300 300 301 303 304 304 305 303 303 302 304 304 301 298 298 301 300 302 301 300 299 295
301 301 301 301 300 300 300 299 300 300 300 300 301 301 299 298 300 301 300 299 299 299 298 298 299 299 301 299 300 301 303 303 300 300 303 301 301 303 303 300 300 300 300 301 299 297 302
301 301 300 300 301 300 300 299 299 298 298 299 300 299 300 299 300 299 299 298 298 298 297 297 297 298 298 298 298 301 301 299 296 298 299 299 301 299 298 299 299 299 298 299 295 293 294
300 300 299 299 299 298 296 296 297 296 297 297 299 301 300 299 299 299 299 298 298 297 297 297 297 297 297 297 296 296 295 297 296 295 295 297 298 299 296 298 298 299 298 298 297 295 294
299 299 300 300 300 299 297 295 296 297 297 297 297 299 299 299 298 298 299 298 298 297 296 296 296 296 296 296 294 294 295 295 294 294 296 296 295 295 295 295 296 296 296 295 293 293 293
300 301 300 300 300 299 296 296 296 296 296 298 296 297 298 298 298 298 299 298 297 297 296 296 295 295 294 295 294 291 292 292 291 291 295 295 295 295 295 295 295 295 295 294 294 295 294
301 300 300 299 299 297 294 296 296 296 296 296 297 297 296 296 297 298 298 298 299 297 296 296 295 295 294 295 295 295 295 295 294 292 293 295 294 296 295 295 294 291 293 294 294 294 295
300 299 298 295 296 295 296 295 295 296 296 295 296 296 295 297 298 298 298 298 298 297 297 296 296 295 295 295 294 294 294 294 294 294 294 295 292 294 295 294 291 294 294 293 295 295 296
297 294 295 296 296 295 296 296 295 295 295 296 296 297 295 296 297 297 297 298 297 297 296 295 295 295 294 294 291 290 292 293 294 294 294 292 293 293 296 292 293 295 294 294 294 292 291
292 294 295 296 295 295 295 295 296 296 295 296 296 296 296 295 296 296 296 296 296 297 295 295 293 293 293 293 293 292 293 293 293 293 293 294 294 294 293 290 292 293 291 292 293 291 289
294 295 295 295 294 294 294 294 294 295 294 295 295 296 296 295 296 296 296 296 295 294 294 294 293 292 292 293 293 293 294 293 292 294 294 294 293 291 291 290 292 292 291 292 291 291 290
295 295 295 295 295 295 295 295 295 294 294 295 295 295 295 295 295 295 295 295 294 294 294 293 293 292 292 292 293 293 292 294 292 294 294 293 292 292 291 292 291 291 291 290 290 293 292
295 295 295 295 295 295 295 295 295 295 296 296 295 296 295 293 294 292 294 293 294 294 294 294 293 293 294 293 292 292 293 291 292 292 292 292 293 291 295 294 290 292 292 291 290 291 291
Wind_Speed
18 21 23 26 28 31 33 35 37 39 39 39 39 38 38 38 36 35 32 29 27 25 22 18 16 13 8 9 15 20 17 10 9 16 21 24 26 23 10 13 22 18 19 23 23 19 23
19 22 25 28 30 32 34 36 36 36 37 40 41 41 42 41 40 38 35 29 24 22 20 19 17 16 11 13 11 14 8 9 10 18 17 21 12 25 12 16 12 11 22 18 23 21 25
21 23 26 29 31 33 35 36 37 38 38 39 40 41 41 41 41 39 33 27 23 20 16 12 10 14 11 19 10 10 10 11 10 14 13 18 22 11 10 14 17 19 10 9 9 15 11
22 24 26 28 31 34 36 38 39 39 40 41 41 41 42 42 41 38 29 24 22 17 10 7 3 10 7 10 16 13 10 9 14 16 17 14 17 14 17 17 10 5 6 8 8 19 16
22 23 26 30 33 36 38 40 41 41 40 40 40 42 42 43 40 35 27 22 15 10 7 6 7 6 4 4 2 6 11 8 7 8 10 8 10 9 9 8 7 9 7 13 14 14 6
23 25 28 32 35 37 37 39 40 40 39 39 40 41 42 42 38 30 27 17 12 7 9 3 1 4 5 1 3 5 7 10 9 9 5 9 8 5 5 7 11 8 14 14 12 6 7
24 25 29 33 36 37 39 40 39 39 38 37 38 39 40 39 31 25 28 14 11 1 6 9 12 13 6 2 7 3 4 7 7 11 6 15 5 10 17 16 13 14 15 15 11 3 6
24 27 31 33 35 37 38 39 39 39 39 38 40 41 42 34 21 21 21 11 8 10 13 16 13 10 8 6 3 8 10 8 8 9 10 4 12 13 11 14 14 16 15 16 9 10 3
25 28 31 35 37 39 39 39 38 37 36 36 38 41 42 33 15 19 13 19 15 11 6 5 6 5 4 4 3 11 10 7 6 10 14 15 8 1 10 17 12 10 9 7 8 5 3
26 28 32 35 37 38 40 40 39 39 38 37 39 41 40 30 10 16 5 22 15 9 4 6 5 4 2 2 3 6 9 4 6 6 10 8 12 11 4 5 6 7 6 4 4 3 2
26 29 33 36 37 39 39 38 38 39 40 38 38 40 37 23 15 10 23 23 12 3 6 2 5 1 3 4 2 3 7 4 7 4 0 3 1 1 6 4 3 3 5 5 4 2 5
28 30 33 36 38 38 38 38 37 38 39 40 37 38 36 19 13 17 25 18 2 3 6 3 3 1 3 6 5 4 2 5 3 4 6 9 3 2 2 3 3 3 0 3 2 3 3
29 32 34 36 36 35 36 36 36 37 40 40 38 37 31 16 17 27 24 6 4 4 2 4 4 6 10 9 4 5 4 5 4 3 3 4 4 3 1 3 2 3 3 1 1 0 5
30 33 34 35 34 32 33 33 34 36 38 40 41 38 24 13 23 26 17 3 6 7 6 10 12 17 10 5 1 4 4 5 3 2 4 5 5 3 2 2 1 6 1 3 4 4 2
31 34 34 34 32 31 31 32 33 34 36 38 42 38 21 8 26 23 5 4 4 6 8 13 16 9 1 6 5 4 4 5 6 6 5 2 2 2 5 3 3 1 2 2 2 4 1
32 33 33 31 31 30 32 32 33 34 36 37 39 27 15 15 29 21 3 5 5 10 11 10 6 6 10 13 11 8 7 6 3 3 4 2 4 1 1 1 2 2 4 1 1 2 4
32 33 32 30 31 32 31 32 33 33 35 35 25 15 12 25 22 7 3 4 6 15 12 6 9 9 10 12 7 6 3 5 6 4 4 2 2 3 3 4 3 1 2 1 2 3 3
33 33 32 32 32 32 33 33 33 32 35 33 18 5 22 15 5 2 4 5 11 9 11 7 6 6 5 9 4 5 3 6 13 7 5 4 3 2 2 2 4 2 2 2 3 3 2
32 32 32 33 32 33 34 34 34 33 30 30 14 18 9 8 3 4 6 7 10 5 4 4 5 4 4 4 4 5 6 7 12 10 7 8 2 1 4 2 4 1 2 1 4 2 3
32 32 33 34 35 34 37 34 32 30 27 24 10 4 6 9 2 1 5 9 4 3 4 2 4 9 2 3 4 5 10 2 7 10 12 2 3 4 3 5 2 2 6 6 5 1 2
34 32 34 33 34 30 38 32 28 26 24 18 4 5 5 3 9 10 11 3 10 7 7 6 3 6 2 3 2 4 6 5 6 6 3 2 3 8 8 8 8 3 5 7 5 6 5
34 35 35 36 32 36 39 29 28 24 22 20 6 4 8 18 11 12 7 4 13 12 5 6 6 8 3 5 6 7 2 3 5 4 3 3 3 6 6 9 8 9 9 9 9 8 4
36 36 37 37 35 39 37 28 24 22 20 12 10 13 12 12 7 8 10 13 5 11 6 13 6 3 5 9 9 10 12 14 9 4 3 2 2 3 3 2 2 5 7 14 3 6 6
37 38 43 44 39 37 25 24 23 20 18 20 23 24 7 7 8 9 8 14 14 15 8 6 14 5 5 8 12 17 21 23 15 13 13 4 4 2 3 3 1 5 4 6 2 1 1
44 44 36 32 30 26 26 26 25 24 22 22 23 20 6 5 10 11 13 8 14 11 5 7 17 6 7 3 3 4 4 3 2 4 6 5 3 1 3 2 5 3 3 5 3 4 8
37 34 33 32 30 28 29 29 27 26 24 25 25 23 16 3 4 5 12 15 8 5 1 5 1 4 1 2 2 3 2 2 1 3 3 5 3 2 2 2 1 3 2 2 4 1 7
36 35 34 34 34 32 29 30 29 27 26 23 26 22 21 4 7 9 6 3 1 2 2 2 2 2 4 2 2 3 2 3 2 2 4 3 2 6 4 2 3 3 1 2 5 4 4
37 37 35 34 33 32 31 28 26 25 23 20 24 22 14 4 14 10 12 3 1 2 1 1 1 1 3 2 1 2 2 1 2 2 1 2 2 3 2 1 4 7 2 4 4 5 4
35 34 35 35 34 32 30 28 25 23 22 17 19 16 2 6 11 18 16 17 14 9 7 2 3 2 2 1 2 2 2 0 1 2 2 2 1 1 2 1 3 6 7 4 2 3 2
Wind_Direction
19 16 13 12 10 8 4 1 359 356 354 352 349 348 344 342 339 336 332 324 315 310 308 301 292 281 273 234 247 272 274 255 197 187 192 199 208 195 205 211 235 229 238 250 258 253 257
12 11 9 8 7 4 1 358 356 354 351 349 348 347 343 341 338 336 332 326 316 310 307 300 281 253 228 246 253 261 258 244 196 193 202 202 216 222 254 245 238 245 231 257 248 259 266
7 6 6 5 3 1 358 356 354 353 352 350 347 345 342 341 338 336 335 331 325 319 315 308 288 225 225 237 271 262 236 217 192 203 207 216 224 256 244 273 291 289 279 293 245 257 257
2 3 3 1 360 358 356 354 353 351 350 349 347 344 342 341 339 338 338 334 329 328 331 320 267 175 242 251 259 270 249 217 209 197 214 216 225 256 263 273 283 289 279 259 232 233 237
359 359 359 359 357 356 355 353 351 349 348 348 346 344 344 342 340 339 345 335 332 339 8 70 90 180 247 307 237 205 197 211 226 212 218 225 205 211 218 222 276 231 249 234 247 239 129
357 358 358 357 356 355 353 350 348 347 348 349 348 346 346 343 340 343 349 348 340 348 0 356 200 235 239 105 243 233 222 188 191 196 199 203 208 219 214 192 217 214 233 236 241 181 171
356 355 356 355 353 351 350 350 348 348 349 349 347 346 347 344 340 346 354 8 3 342 289 259 284 281 291 288 265 181 176 178 216 195 209 205 207 209 221 221 243 267 279 281 292 163 155
352 354 354 352 349 348 349 349 348 348 349 350 347 346 346 347 344 354 3 43 18 313 300 290 253 261 258 247 232 204 215 199 196 213 228 200 237 248 248 244 258 263 261 253 275 275 179
350 350 349 348 348 348 347 347 347 346 347 349 349 348 348 353 354 9 0 6 348 336 279 294 211 220 199 198 239 163 174 203 245 233 238 240 264 186 253 239 249 253 260 271 251 354 235
346 346 345 345 345 345 346 346 346 345 346 350 351 350 350 356 358 8 335 335 334 333 289 166 196 192 223 177 229 199 192 227 219 250 227 240 246 262 273 253 216 242 5 30 50 56 229
342 342 342 343 344 344 343 343 343 343 345 349 353 351 349 352 350 8 334 330 329 324 328 101 127 186 219 229 136 190 202 194 269 265 266 246 91 168 237 267 352 96 28 45 39 310 324
341 340 340 342 342 342 341 342 341 341 342 346 352 352 345 349 4 324 331 331 353 255 249 105 110 195 258 193 189 128 190 223 282 302 253 259 102 22 63 73 41 100 239 173 129 172 250
339 338 339 339 340 341 339 340 340 341 341 344 348 351 344 337 338 343 340 4 287 232 119 50 358 335 330 278 276 177 215 191 235 259 208 227 154 99 238 143 139 189 194 222 250 190 239
336 335 337 338 340 338 340 340 343 341 340 342 344 348 342 330 343 337 343 260 241 19 8 359 346 301 271 28 203 349 283 245 116 243 10 325 284 155 155 30 157 191 198 197 239 179 190
333 334 336 337 338 338 338 339 339 339 341 339 340 349 333 334 337 336 335 261 350 15 356 333 322 306 72 99 316 301 260 265 47 8 185 228 239 65 49 7 21 127 202 54 320 212 4
332 333 335 336 337 336 337 339 340 341 340 338 341 340 325 321 326 326 260 253 17 27 349 335 305 333 344 334 334 321 335 21 94 15 344 322 271 319 91 87 94 23 336 109 277 220 232
333 334 334 335 335 337 337 337 339 337 335 336 339 324 314 319 319 280 279 14 349 342 1 343 337 309 316 328 328 314 284 58 8 343 352 346 273 127 122 202 142 118 199 302 93 138 200
331 332 333 335 334 335 334 334 332 333 332 338 335 298 323 335 319 89 42 352 322 325 344 320 307 334 351 341 322 317 251 33 8 2 334 43 343 305 262 115 63 68 335 80 149 293 66
332 334 333 332 330 330 331 330 326 327 329 333 313 303 318 350 300 357 341 309 298 310 322 321 304 29 333 307 305 330 6 88 45 20 9 7 275 280 167 132 33 48 143 173 92 101 214
332 335 333 329 325 327 334 328 328 328 329 328 303 299 316 290 241 346 301 283 287 262 287 241 257 273 327 286 294 287 296 17 314 333 300 313 269 257 230 301 328 220 265 219 159 162 267
335 335 333 332 323 323 330 332 326 326 328 329 287 276 312 281 300 298 292 288 279 267 223 225 270 267 125 245 278 254 277 337 317 328 358 259 248 256 267 275 287 263 243 252 215 217 192
331 326 327 324 319 317 326 326 319 317 314 303 257 292 293 281 291 286 271 217 250 255 216 232 241 281 294 206 221 270 241 208 227 267 222 218 263 307 285 267 252 260 255 244 239 252 272
324 321 321 323 317 317 323 319 319 319 319 306 288 280 281 277 280 281 270 261 251 277 281 273 296 311 282 271 291 275 252 266 246 214 207 232 297 321 231 242 319 312 240 234 209 227 206
319 316 314 312 310 315 317 316 316 317 308 299 300 298 254 274 272 256 274 255 268 280 251 238 288 265 295 294 299 279 257 251 245 248 241 233 178 218 270 307 228 224 95 64 89 267 211
313 317 321 318 317 318 313 310 309 308 304 298 298 287 246 279 300 297 306 308 309 253 200 265 282 285 300 323 294 290 267 177 258 233 208 175 181 226 262 198 286 147 90 110 75 65 20
323 321 320 317 319 314 309 309 309 308 309 303 293 292 260 258 235 321 313 302 302 289 68 235 108 290 157 266 250 256 294 351 118 163 179 190 190 219 216 176 260 137 106 22 112 110 345
324 320 317 318 318 316 312 307 308 308 310 305 302 296 276 253 299 330 297 335 194 105 249 282 156 77 165 246 254 262 276 14 328 292 161 155 154 216 255 261 304 53 179 246 88 200 58
323 323 325 326 322 321 318 315 311 306 301 301 296 302 271 264 301 305 280 263 269 214 214 153 287 159 169 253 296 7 313 33 320 313 19 118 164 185 212 237 263 9 356 110 182 121 112
327 328 325 321 318 317 317 318 316 312 312 305 302 295 305 283 284 305 286 304 284 309 327 266 330 122 307 320 354 339 300 328 259 291 40 359 349 223 304 177 151 65 100 110 121 134 122